Terug naar catalogus

STARLINK-5529

ActiefCommunicatieVLEO
NORAD 56495·PAYLOAD·🇺🇸 United States

Gelanceerd May 10, 2023 vanaf Vandenberg Space Force Base

Loading…

Volgende Passages (komende 24 uur)

TLE

VersSource: CelesTrak SupGP

Epoch: Sep 14, 2026, 22:21 UTC

1 56495C 23064AZ  26257.93173611 -.00039997  00000+0 -33547-2 0  2576
2 56495  70.0015 347.2353 0003174 271.1878 355.1367 14.98318934    11

Volg STARLINK-5529 in realtime met AllMySat

Download on the App Store